STARLINK-1949 (46777 NORAD) Tracking and Keplerian Element Data

This shows tracking and keplerian element data for the satellite.

Feedback or suggestion? Click here.




ElementValue
Catalog46777
NameSTARLINK-1949
Epoch Orbit181
Epoch Day330.91667824
Epoch Year2020
RAAN2.3479
Inclination53.0548
Eccentricity0.0001228
Argument of Perigee60.8482
Mean Anonmoly339.5195
Mean Motion15.47415329
Decay Rate-0.01079729
L11 46777U 20074AQ 20330.91667824 -.01079729 00000-0 -22903-1 0 9999
L22 46777 53.0548 2.3479 0001228 60.8482 339.5195 15.47415329 1810

Live tracking and technical data element details for STARLINK-1949 (NORAD 46777). STARLINK-1949 can be tracked NOW for your location showing map with azimuth and elevation plus other details from your city location.

Track the satellite on the map from your city or location and see movement details for azimuth, elevation, latitude, longitude, range, height, and movement on the map or in text.







IsCatalogInMostPopularTable: catalog: 46777, numindb: 5
Update: records affected: 1



GetName: 46777 STARLINK-1949

Hit Count: updated at: Thu, 26 Nov 2020 17:48:07 GMT